Terminal Aerodrome Forecast
Issued by NWS Charleston, WV

Current Version | Previous Version | Graphics & Text | Print | Product List | Glossary On
Versions: 1 2 3 4 5 6 7 8 9 10 11 12 13 14 15 16 17 18 19 20 21 22 23 24
000
FTUS41 KRLX 010800 AAA
TAFPKB
TAF AMD
KPKB 010829Z 0108/0206 00000KT 6SM BR OVC008
      TEMPO 0108/0112 4SM BR
     FM011400 00000KT 5SM HZ OVC012
     FM011700 27004KT 6SM HZ BKN020
     FM012100 25003KT 6SM HZ SCT025
     FM020500 00000KT 5SM BR FEW001=

USA.gov is the U.S. government's official web portal to all federal, state and local government web resources and services.